Location: Armstrong Village
(14.3346°N, 120.9854°E)
Time: 02:12:01
(UTC+00:00)

Helios 1A Rocket - Pass Details

Date: 13 January 2026
Orbit: 425 x 435 km, 98.3° (Epoch: 16 February)

Event Time Altitude Azimuth Distance (km) Brightness Sun altitude
Exits shadow 10:47:16 - 0° (N) 2,416 5.9 -14.9°
Rises 10:47:18 0° 0° (N) 2,405 5.9 -14.9°
Reaches altitude 10° 10:49:24 10° 352° (N) 1,532 5.0 -15.4°
Maximum altitude 10:52:26 36° 284° (WNW) 700 3.9 -16.1°
Drops below altitude 10° 10:55:27 10° 215° (SW) 1,519 5.9 -16.8°
Sets 10:57:32 0° 206° (SSW) 2,381 6.8 -17.2°
